GW4022 Weather Reports


time (UTC)temp
C
wind
direction
speed
KPH
gust
KPH
rain 1hr
cm
rain 24hr
cm
rain mn
cm
humidity
%
barometer
mb
20260508054603 13 0.0 0.0 0.00 0.00 0.00 80 1011.9
20260508053055 13 0.0 0.0 0.00 0.00 0.00 81 1011.8
20260508051555 12 0.0 0.0 0.00 0.00 0.00 80 1011.7
20260508050100 12 0.0 0.0 0.00 0.00 0.00 81 1011.6
20260508044556 -17 0.0 0.0 0.00 0.00 0.00 1011.5
20260508043101 -17 0.0 0.0 0.00 0.00 0.00 1011.6
20260508041558 -17 0.0 0.0 0.00 0.00 0.00 1011.5
20260508040056 -17 0.0 0.0 0.00 0.00 0.00 1011.3
20260508034557 -17 0.0 0.0 0.00 0.00 0.00 1011.3
20260508033058 -17 0.0 0.0 0.00 0.00 0.00 1011.3
20260508031558 -17 0.0 0.0 0.00 0.00 0.00 1011.2
20260508030105 -17 0.0 0.0 0.00 0.00 0.00 1011.4
20260508024556 -17 0.0 0.0 0.00 0.00 0.00 1011.3
20260508023055 -17 0.0 0.0 0.00 0.00 0.00 1011.5
20260508021558 -17 0.0 0.0 0.00 0.00 0.00 1011.6
20260508020100 -17 0.0 0.0 0.00 0.00 0.00 1011.7
20260508014558 -17 0.0 0.0 0.00 0.00 0.00 1011.8
20260508013055 -17 0.0 0.0 0.00 0.00 0.00 1012.0
20260508011603 -17 0.0 0.0 0.00 0.00 0.00 1012.1
20260508004602 -17 0.0 0.0 0.00 0.00 0.00 1012.2
20260508003109 -17 0.0 0.0 0.00 0.00 0.00 1012.4
20260508001600 -17 0.0 0.0 0.00 0.00 0.00 1012.5
20260507234611 -17 0.0 0.0 0.00 0.00 0.00 1012.8
20260507233059 -17 0.0 0.0 0.00 0.00 0.00 1013.0
20260507231610 -17 0.0 0.0 0.00 0.00 0.00 1012.9
20260507230100 -17 0.0 0.0 0.00 0.00 0.00 1013.2
20260507224615 -17 0.0 0.0 0.00 0.00 0.00 1013.5
20260507223100 -17 0.0 0.0 0.00 0.00 0.00 1013.6
20260507221557 -17 0.0 0.0 0.00 0.00 0.00 1013.5
20260507220057 -17 0.0 0.0 0.00 0.00 0.00 1013.4
20260507214603 -17 0.0 0.0 0.00 0.00 0.00 1013.3
20260507213056 -17 0.0 0.0 0.00 0.00 0.00 1013.3
20260507211623 -17 0.0 0.0 0.00 0.00 0.00 1013.3
20260507204605 -17 0.0 0.0 0.00 0.00 0.00 1013.4
20260507203110 16 0.0 0.0 0.00 0.00 0.00 71 1013.1
20260507201611 16 0.0 0.0 0.00 0.00 0.00 69 1013.2
20260507200103 17 0.0 0.0 0.00 0.00 0.00 68 1013.2
20260507194556 17 0.0 0.0 0.00 0.00 0.00 66 1013.4
20260507193055 17 0.0 0.0 0.00 0.00 0.00 66 1013.2
20260507191557 17 0.0 0.0 0.00 0.00 0.00 64 1013.2
20260507190055 17 0.0 0.0 0.00 0.00 0.00 64 1012.9
20260507184556 17 0.0 0.0 0.00 0.00 0.00 64 1013.0
20260507183053 18 0.0 0.0 0.00 0.00 0.00 63 1013.0
20260507181554 18 0.0 0.0 0.00 0.00 0.00 63 1013.2
20260507180055 18 0.0 0.0 0.00 0.00 0.00 62 1013.1
20260507174557 18 0.0 0.0 0.00 0.00 0.00 62 1013.0
20260507173102 18 0.0 0.0 0.00 0.00 0.00 61 1012.7
20260507171602 19 0.0 0.0 0.00 0.00 0.00 59 1012.8
20260507170059 20 0.0 0.0 0.00 0.00 0.00 59 1012.7
20260507164557 20 0.0 0.0 0.00 0.00 0.00 58 1012.8
20260507163100 20 0.0 0.0 0.00 0.00 0.00 55 1012.7
20260507161601 20 0.0 0.0 0.00 0.00 0.00 54 1012.7
20260507160108 20 0.0 0.0 0.00 0.00 0.00 54 1012.7
20260507154557 20 0.0 0.0 0.00 0.00 0.00 56 1012.7
20260507153100 20 0.0 0.0 0.00 0.00 0.00 53 1012.8
20260507151556 20 0.0 0.0 0.00 0.00 0.00 55 1012.9
20260507150101 20 0.0 0.0 0.00 0.00 0.00 54 1012.9
20260507144556 20 0.0 0.0 0.00 0.00 0.00 53 1013.0
20260507143055 20 0.0 0.0 0.00 0.00 0.00 56 1013.2
20260507141558 20 0.0 0.0 0.00 0.00 0.00 58 1013.2
20260507140110 20 0.0 0.0 0.00 0.00 0.00 59 1013.4
20260507134557 20 0.0 0.0 0.00 0.00 0.00 60 1013.6
20260507133057 20 0.0 0.0 0.00 0.00 0.00 60 1013.7
20260507131557 20 0.0 0.0 0.00 0.00 0.00 61 1013.9
20260507130100 20 0.0 0.0 0.00 0.00 0.00 61 1014.0
20260507124559 20 0.0 0.0 0.00 0.00 0.00 62 1014.1
20260507123054 20 0.0 0.0 0.00 0.00 0.00 61 1014.1
20260507121556 20 0.0 0.0 0.00 0.00 0.00 62 1013.9
20260507120054 20 0.0 0.0 0.00 0.00 0.00 57 1014.0
20260507114553 20 0.0 0.0 0.00 0.00 0.00 58 1014.0
20260507113055 20 0.0 0.0 0.00 0.00 0.00 64 1014.2
20260507111554 20 0.0 0.0 0.00 0.00 0.00 65 1014.4
20260507110057 20 0.0 0.0 0.00 0.00 0.00 66 1014.3
20260507104600 20 0.0 0.0 0.00 0.00 0.00 66 1014.4
20260507103059 18 0.0 0.0 0.00 0.00 0.00 76 1014.4
20260507101608 17 0.0 0.0 0.00 0.00 0.00 76 1014.8
20260507094602 19 0.0 0.0 0.00 0.00 0.00 70 1014.6
20260507093058 19 0.0 0.0 0.00 0.00 0.00 73 1014.7
20260507091606 18 0.0 0.0 0.00 0.00 0.00 78 1014.7
20260507090115 17 0.0 0.0 0.00 0.00 0.00 84 1014.6
20260507084600 16 0.0 0.0 0.00 0.00 0.00 89 1014.7
20260507083105 16 0.0 0.0 0.00 0.00 0.00 91 1014.6
20260507081559 16 0.0 0.0 0.00 0.00 0.00 93 1014.8
20260507080056 15 0.0 0.0 0.00 0.00 0.00 94 1015.0
20260507074600 14 0.0 0.0 0.00 0.00 0.00 94 1015.0
20260507073108 13 0.0 0.0 0.00 0.00 0.00 94 1014.8
20260507071559 13 0.0 0.0 0.00 0.00 0.00 94 1015.0
20260507070138 13 0.0 0.0 0.00 0.00 0.00 94 1014.8
20260507064557 13 0.0 0.0 0.00 0.00 0.00 94 1014.7
20260507063101 12 0.0 0.0 0.00 0.00 0.00 94 1014.5
20260507061556 12 0.0 0.0 0.00 0.00 0.00 94 1014.7
20260507060100 12 0.0 0.0 0.00 0.00 0.00 94 1014.6